Preview of NWS' New Version of Forecast
This preview is not operational and should not be used for support decisions.

Regional Weather Roundup (RWR)

Issued by Philadelphia/Mt Holly (PHI)

                            
000
ASUS41 KPHI 240212
RWRPHI

REGIONAL WEATHER ROUNDUP
NATIONAL WEATHER SERVICE MOUNT HOLLY NJ
1000 PM EDT SAT MAR 23 2019

NOTE:  "FAIR" INDICATES FEW OR NO CLOUDS BELOW 12,000 FEET WITH NO
SIGNIFICANT WEATHER AND/OR OBSTRUCTIONS TO VISIBILITY.

 * = STATION DOES NOT REPORT PRECIPITATION (E.G. RAIN, SNOW, ETC.) 
        OR FOG.

NJZ015>026-240300-
SOUTHERN NEW JERSEY
  
CITY           SKY/WX    TMP DP  RH WIND       PRES   REMARKS
POMONA         FAIR      45  16  31 W13       30.16R                  
WILDWOOD*      FAIR      46  27  47 W12       30.19R                  
MILLVILLE      FAIR      42  17  36 W8        30.18R                  
WRIGHTSTOWN    FAIR      43  12  27 W8        30.12R                  
MOUNT HOLLY    FAIR      46  11  24 W5        30.16R                  
TRENTON        FAIR      43  10  26 W3        30.13R                  

$$
NJZ001>014-240300-
NORTHERN NEW JERSEY
  
CITY           SKY/WX    TMP DP  RH WIND       PRES   REMARKS
SUSSEX         FAIR      39  12  33 W13       30.11R WCI  31          
ANDOVER*         N/A     38   9  30 VRB5      30.12R WCI  34          
MORRISTOWN     CLEAR     41  12  30 NW8G15    30.13R                  
NEWARK         FAIR      43   9  24 NW9       30.12R                  
TETERBORO      FAIR      42  12  29 NW9G18    30.12R                  
CALDWELL       FAIR      41  10  28 NW9G17    30.13R                  
SOMERVILLE     FAIR      42  10  27 NW8       30.12R                  
ALLAIRE*       FAIR      42  12  29 NW10      30.14R                  
TOMS RIVER*    FAIR      39  14  36 W7        30.15R WCI  34          

$$
PAZ043-044-047-054-055-060>062-066>071-240300-
EASTERN PENNSYLVANIA
  
CITY           SKY/WX    TMP DP  RH WIND       PRES   REMARKS
PHILADELPHIA   FAIR      47  12  24 W12       30.17R                  
NORTH PHILA    FAIR      46   9  22 W5        30.17R                  
BLUE BELL*     FAIR      41  14  33 CALM      30.17S                  
DOYLESTOWN     FAIR      42   9  25 W8        30.14R                  
QUAKERTOWN*    CLEAR     41   9  26 CALM      30.15S                  
PERKASIE*      FAIR      41   9  26 W9        30.15R                  
POTTSTOWN      FAIR      40  14  34 W8        30.17R WCI  34          
LANCASTER      FAIR      42  16  34 W7        30.18R                  
COATESVILLE    FAIR      39  16  38 W10       30.18R WCI  32          
READING          N/A     43  13  29 W7        30.16R                  
ALLENTOWN      FAIR      43   9  24 NW8       30.15R                  
MOUNT POCONO   FAIR      31  11  43 W16G25    30.07S WCI  20          
HAZLETON       FAIR      36   7  30 W7G16     30.15S WCI  30          
LEHIGHTON      FAIR      37  10  32 W3        30.17R                  
WILKES BARRE   FAIR      37  10  32 NW6       30.15R WCI  32          

$$
DEZALL-MDZ008-012-015-019-020-240300-
DELAWARE AND EASTERN MARYLAND
  
CITY           SKY/WX    TMP DP  RH WIND       PRES   REMARKS
WILMINGTON     FAIR      42  15  33 W12       30.19R                  
GEORGETOWN     FAIR      47  22  37 NW5       30.22R                  
EASTON         FAIR      46  22  39 W5        30.27R                  
PATUXENT       FAIR      46  19  34 NW7       30.24R                  
OCEAN CITY     FAIR      43  23  45 NW7       30.21R                  
WALLOPS ISLAND FAIR      44  24  45 W7        30.24R                  
CAMBRIDGE      CLEAR     45  23  42 NW5       30.23S                  
SALISBURY      FAIR      45  23  42 W8        30.22R                  

$$
PAZ001-021-NYZ056-072-MDZ011-DCZ001-240300-
OTHER NEARBY LOCATIONS
  
CITY           SKY/WX    TMP DP  RH WIND       PRES   REMARKS
HARRISBURG     FAIR      43  17  35 NW10      30.19S                  
STATE COLLEGE  CLEAR     37  14  38 W10       30.21R WCI  30          
WILLIAMSPORT   FAIR      36  12  37 W3        30.19R                  
BINGHAMTON     FAIR      29  12  49 W12       30.11R WCI  19          
NEW YORK CITY  FAIR      43   9  24 VRB5      30.13R                  
BALTIMORE      FAIR      39  19  44 W6        30.23R WCI  35          
WASHINGTON DC  FAIR      49  15  25 W7        30.26R                  

$$